Location: Taipo
(41.0000°S, 175.9500°E)
Time: 13:36:14
(UTC+00:00)

FengYun 1-2 T - Visible Passes

Search period start: 12 July 2024 00:00
Search period end: 22 July 2024 00:00
Orbit: 846 x 880 km, 98.8° (Epoch: 11 July)

Date Brightness Start Highest point End Pass type
(mag) Time Alt. Az. Time Alt. Az. Time Alt. Az.
12 Jul 4.8 05:46:01 10° S 05:51:30 61° WSW 05:56:54 10° NNW visible
13 Jul 4.6 05:37:45 10° S 05:43:18 71° WSW 05:48:46 10° NNW visible
13 Jul 7.1 07:22:27 10° SW 07:23:13 10° SW 07:23:59 10° WSW visible
14 Jul 4.4 05:29:30 10° SSE 05:35:05 83° WSW 05:40:36 10° NNW visible
14 Jul 6.9 07:13:01 10° SW 07:15:08 12° WSW 07:17:15 10° W visible
15 Jul 6.8 07:04:11 10° SSW 07:07:02 14° WSW 07:09:53 10° W visible
16 Jul 6.8 06:55:32 10° SSW 06:58:56 17° WSW 07:02:20 10° W visible
17 Jul 6.6 06:46:58 10° SSW 06:50:49 20° WSW 06:54:38 10° WNW visible
18 Jul 6.4 06:38:28 10° SSW 06:42:41 23° WSW 06:46:52 10° WNW visible
19 Jul 6.2 06:30:01 10° S 06:34:32 26° WSW 06:39:02 10° WNW visible
20 Jul 6.0 06:21:37 10° S 06:26:23 31° WSW 06:31:08 10° NW visible
21 Jul 5.8 06:13:14 10° S 06:18:14 35° WSW 06:23:12 10° NW visible
